Location: Newark
(50.4375°N, 16.6489°E)
Time: 05:26:08
(UTC+00:00)

Envisat - Pass Details

Date: 25 September 2019
Orbit: 764 x 766 km, 98.1° (Epoch: 20 October)

Event Time Altitude Azimuth Distance (km) Brightness Sun altitude
Rises 17:58:32 0° 200° (SSW) 3,222 6.3 -12.3°
Reaches altitude 10° 18:01:13 10° 213° (SSW) 2,301 5.7 -12.7°
Maximum altitude 18:05:21 25° 268° (W) 1,516 5.4 -13.4°
Drops below altitude 10° 18:09:32 10° 323° (NW) 2,315 6.3 -14.0°
Sets 18:12:15 0° 337° (NNW) 3,246 6.9 -14.4°
